Погода в Осиннике

Россия / Тюменская область     59°16′14″N   68°50′10″E
темп.,
°C
ветер,
м/с
пор.,
м/с
влажн.,
%
обл.,
%
осадки,
мм/ч
давл.,
гПа
погр.,
м
13 апреля, вт
вт1323:00+1з211870 0.0 1034220
02:00+1зсз311892 0.0 1035263
05:000з29947 0.0 1036190
08:00+2з399155 0.0 1037291
11:00+6з59808 0.0 1036794
14:00+9з59705 0.0 10351025
17:00+10зюз51163100 0.0 1033821
20:00+6юз4137870 0.0 1032289
14 апреля, ср
ср1423:00+5юз41577100 0.0 1030393
02:00+5зюз51678100 0.0 1027528
05:00+6зюз51583100 0.0 1025513
08:00+7з4128298 0.0 1025594
11:00+10зсз5977100 0.0 10251022
14:00+9зсз3884100 0.0 1025605
17:00+11зсз2682100 0.0 1025551
20:00+9ююз229090 0.0 102418
15 апреля, чт
чт1523:00+8ююз259299 0.0 102392
02:00+6юз379340 0.0 1021127
05:00+5зюз310935 0.0 1021197
08:00+9зюз412835 0.0 1019365
11:00+14зюз510565 0.0 1017668
14:00+17зюз511445 0.0 10151303
17:00+17з510445 0.0 10141412
20:00+11зюз37695 0.0 1013115
16 апреля, пт
пт1623:00
02:00+4ссв41084100 0.2 1015624
05:00+4ссз478074 0.3 1017680
08:00+2ссв4974100 0.0 1018737
11:00+4ссв6661100 0.1 10201354
14:00+4ссв564499 0.1 10211747
17:00+3ссв553867 0.1 10221778
20:000ссв5848100 0.0 1023937
17 апреля, сб
сб1723:00−3всв4848100 0.0 1023766
02:00−4всв36510 0.0 1024559
05:00−5всв24530 0.0 1023458
08:00−3вюв224021 0.0 1022746
11:000ююв222752 0.0 10201087
14:00+2ююз3325100 0.0 10171406
17:00+2ююз2328100 0.0 10161581
20:00−2ююв234889 0.0 101543